This is the latest recevied weather packets stored in our database for station/object KL1IO. If no packets are shown the sender has not sent any weather packets the latest 1 day(s).
| Time | Temp. | Humidity | Pressure | Rain* | Wind** | Luminosity | Snow |
|---|---|---|---|---|---|---|---|
| 1778097032 | 3.89° C | 99% | 1016.7 hPa | 0 mm | - | 286 W/m² | - |
| 1778096426 | 3.33° C | 99% | 1016.4 hPa | 0 mm | - | 323 W/m² | - |
| 1778095213 | 3.33° C | 99% | 1016.2 hPa | 0 mm | - | 247 W/m² | - |
| 1778094910 | 3.33° C | 99% | 1016.4 hPa | 0 mm | - | 316 W/m² | - |
| 1778093394 | 2.78° C | 99% | 1016.2 hPa | 0 mm | - | 241 W/m² | - |
| 1778092181 | 2.22° C | 99% | 1016.3 hPa | 0 mm | - | 204 W/m² | - |
| 1778090970 | 2.78° C | 99% | 1016.1 hPa | 0 mm | - | 190 W/m² | - |
| 1778090666 | 2.22° C | 99% | 1016.2 hPa | 0 mm | - | 146 W/m² | - |
| 1778090060 | 2.78° C | 99% | 1016.4 hPa | 1.27 mm | - | 122 W/m² | - |
| 1778087939 | 2.22° C | 99% | 1016.3 hPa | 0 mm | - | 95 W/m² | - |
| 1778087334 | 2.22° C | 99% | 1016.2 hPa | 0 mm | - | 93 W/m² | - |
| 1778086421 | 1.67° C | 99% | 1015.9 hPa | 0 mm | - | 103 W/m² | - |
| 1778085506 | 1.67° C | 99% | 1015.9 hPa | 1.78 mm | - | 74 W/m² | - |
| 1778083382 | 1.67° C | 99% | 1015.6 hPa | 1.27 mm | - | 36 W/m² | - |
| 1778083081 | 1.67° C | 99% | 1015.8 hPa | 1.27 mm | - | 43 W/m² | - |
| 1778082777 | 1.67° C | 99% | 1015.7 hPa | 0 mm | - | 43 W/m² | - |
| 1778079220 | 1.67° C | 99% | 1015.6 hPa | 0 mm | - | 18 W/m² | - |
| 1778078010 | 1.67° C | 99% | 1015.4 hPa | 0 mm | - | 11 W/m² | - |
| 1778076196 | 1.11° C | 99% | 1015.4 hPa | 1.27 mm | - | 5 W/m² | - |
| 1778073468 | 1.67° C | 99% | 1015.3 hPa | 0 mm | - | 1 W/m² | - |
| 1778073164 | 1.67° C | 99% | 1015.1 hPa | 1.27 mm | - | 0 W/m² | - |
| 1778072861 | 1.67° C | 99% | 1015.3 hPa | 1.27 mm | - | 0 W/m² | - |
| 1778072558 | 1.11° C | 99% | 1015.3 hPa | 1.78 mm | - | 0 W/m² | - |
| 1778072256 | 1.11° C | 99% | 1015.2 hPa | 1.78 mm | - | 0 W/m² | - |
| 1778071953 | 1.67° C | 99% | 1015.2 hPa | 1.78 mm | - | 0 W/m² | - |
* Rain latest hour (hover to see other rain measurements)
** Current wind speed in m/s (hover to see current wind gust speed)